Time,TemperatureF,DewpointF,PressureIn,WindDirection,WindDirectionDegrees,WindSpeedMPH,WindSpeedGustMPH,Humidity,HourlyPrecipIn,Conditions,Clouds,dailyrainin,SoftwareType,DateUTC
2013-02-14 00:04:00,65.4,57.3,29.98,NNE,18,0.0,-999.0,75,0.00,,,0.00,Wunderground v.1.15,2013-02-14 05:04:00,
2013-02-14 00:09:00,65.2,56.7,29.97,NE,49,0.0,-999.0,74,0.00,,,0.00,Wunderground v.1.15,2013-02-14 05:09:00,
2013-02-14 00:19:00,65.2,57.4,29.97,North,360,0.0,-999.0,76,0.00,,,0.00,Wunderground v.1.15,2013-02-14 05:19:00,
2013-02-14 00:29:00,65.3,57.2,29.97,North,360,0.0,-999.0,75,0.00,,,0.00,Wunderground v.1.15,2013-02-14 05:29:00,
2013-02-14 00:34:00,65.1,59.5,29.96,North,360,0.0,-999.0,82,0.00,,,0.00,Wunderground v.1.15,2013-02-14 05:34:00,
2013-02-14 00:39:00,64.5,58.2,29.97,NNE,17,0.0,-999.0,80,0.00,,,0.00,Wunderground v.1.15,2013-02-14 05:39:00,
2013-02-14 00:44:00,64.1,58.8,29.97,East,101,0.0,-999.0,83,0.00,,,0.00,Wunderground v.1.15,2013-02-14 05:44:00,
2013-02-14 00:54:00,63.5,58.6,29.97,East,83,0.0,-999.0,84,0.00,,,0.00,Wunderground v.1.15,2013-02-14 05:54:00,
2013-02-14 00:59:00,63.4,59.1,29.97,East,84,0.0,-999.0,86,0.00,,,0.00,Wunderground v.1.15,2013-02-14 05:59:00,
2013-02-14 01:09:00,62.9,58.6,29.97,East,83,0.0,-999.0,86,0.00,,,0.00,Wunderground v.1.15,2013-02-14 06:09:00,
2013-02-14 01:14:00,62.7,58.1,29.97,East,83,0.0,-999.0,85,0.00,,,0.00,Wunderground v.1.15,2013-02-14 06:14:00,
2013-02-14 01:19:00,62.9,58.0,29.97,East,84,0.0,-999.0,84,0.00,,,0.00,Wunderground v.1.15,2013-02-14 06:19:00,
2013-02-14 01:24:00,63.1,58.5,29.97,East,84,0.0,-999.0,85,0.00,,,0.00,Wunderground v.1.15,2013-02-14 06:24:00,
2013-02-14 01:29:00,63.3,59.0,29.98,East,84,0.0,-999.0,86,0.00,,,0.00,Wunderground v.1.15,2013-02-14 06:29:00,
2013-02-14 01:34:00,63.2,59.6,29.97,East,84,0.0,-999.0,88,0.00,,,0.01,Wunderground v.1.15,2013-02-14 06:34:00,
2013-02-14 01:44:00,63.1,59.8,29.97,East,84,0.0,-999.0,89,0.00,,,0.01,Wunderground v.1.15,2013-02-14 06:44:00,
2013-02-14 01:49:00,63.1,59.8,29.98,East,84,0.0,-999.0,89,0.00,,,0.01,Wunderground v.1.15,2013-02-14 06:49:00,
2013-02-14 01:54:00,63.2,59.9,29.98,East,84,0.0,-999.0,89,0.00,,,0.01,Wunderground v.1.15,2013-02-14 06:54:00,
2013-02-14 01:59:00,63.0,59.4,29.97,East,84,0.0,-999.0,88,0.00,,,0.01,Wunderground v.1.15,2013-02-14 06:59:00,
2013-02-14 02:04:00,62.9,59.3,29.97,East,84,0.0,-999.0,88,0.00,,,0.01,Wunderground v.1.15,2013-02-14 07:04:00,
2013-02-14 02:14:00,63.0,59.4,29.97,East,83,0.0,-999.0,88,0.00,,,0.01,Wunderground v.1.15,2013-02-14 07:14:00,
2013-02-14 02:19:00,63.1,59.2,29.97,East,84,0.0,-999.0,87,0.00,,,0.01,Wunderground v.1.15,2013-02-14 07:19:00,
2013-02-14 02:24:00,63.2,59.3,29.96,East,83,0.0,-999.0,87,0.00,,,0.01,Wunderground v.1.15,2013-02-14 07:24:00,
2013-02-14 02:29:00,63.3,59.4,29.96,East,84,0.0,-999.0,87,0.00,,,0.01,Wunderground v.1.15,2013-02-14 07:29:00,
2013-02-14 02:34:00,63.4,59.8,29.96,East,84,0.0,-999.0,88,0.00,,,0.01,Wunderground v.1.15,2013-02-14 07:34:00,
2013-02-14 02:39:00,63.5,59.9,29.96,East,84,0.0,-999.0,88,0.00,,,0.01,Wunderground v.1.15,2013-02-14 07:39:00,
2013-02-14 02:49:00,63.5,59.6,29.96,East,83,0.0,-999.0,87,0.00,,,0.01,Wunderground v.1.15,2013-02-14 07:49:00,
2013-02-14 02:54:00,63.6,59.7,29.96,East,83,0.0,-999.0,87,0.00,,,0.01,Wunderground v.1.15,2013-02-14 07:54:00,
2013-02-14 02:59:00,63.4,58.8,29.95,East,84,0.0,-999.0,85,0.00,,,0.01,Wunderground v.1.15,2013-02-14 07:59:00,
2013-02-14 03:09:00,63.3,58.7,29.96,East,84,0.0,-999.0,85,0.00,,,0.01,Wunderground v.1.15,2013-02-14 08:09:00,
2013-02-14 03:14:00,63.3,58.7,29.96,East,84,0.0,-999.0,85,0.00,,,0.01,Wunderground v.1.15,2013-02-14 08:14:00,
2013-02-14 03:19:00,63.4,58.8,29.95,East,83,0.0,-999.0,85,0.00,,,0.01,Wunderground v.1.15,2013-02-14 08:19:00,
2013-02-14 03:24:00,63.6,58.7,29.95,East,83,0.0,-999.0,84,0.00,,,0.01,Wunderground v.1.15,2013-02-14 08:24:00,
2013-02-14 03:29:00,63.7,58.8,29.95,East,84,0.0,-999.0,84,0.00,,,0.01,Wunderground v.1.15,2013-02-14 08:29:00,
2013-02-14 03:39:00,63.9,58.6,29.95,East,84,0.0,-999.0,83,0.00,,,0.01,Wunderground v.1.15,2013-02-14 08:39:00,
2013-02-14 03:44:00,64.0,59.4,29.95,East,83,0.0,-999.0,85,0.00,,,0.01,Wunderground v.1.15,2013-02-14 08:44:00,
2013-02-14 03:49:00,64.1,58.8,29.95,East,84,0.0,-999.0,83,0.00,,,0.01,Wunderground v.1.15,2013-02-14 08:49:00,
2013-02-14 03:54:00,64.3,58.7,29.95,East,83,0.0,-999.0,82,0.00,,,0.01,Wunderground v.1.15,2013-02-14 08:54:00,
2013-02-14 03:59:00,64.5,58.9,29.95,ENE,78,0.0,-999.0,82,0.00,,,0.01,Wunderground v.1.15,2013-02-14 08:59:00,
2013-02-14 04:09:00,65.1,60.1,29.95,ENE,76,1.0,-999.0,84,0.00,,,0.01,Wunderground v.1.15,2013-02-14 09:09:00,
2013-02-14 04:14:00,65.0,59.7,29.95,ENE,76,3.0,-999.0,83,0.00,,,0.01,Wunderground v.1.15,2013-02-14 09:14:00,
2013-02-14 04:24:00,64.7,60.4,29.95,ENE,72,3.0,-999.0,86,0.00,,,0.01,Wunderground v.1.15,2013-02-14 09:24:00,
2013-02-14 04:34:00,64.3,60.0,29.95,East,84,4.0,-999.0,86,0.00,,,0.01,Wunderground v.1.15,2013-02-14 09:34:00,
2013-02-14 04:39:00,64.2,59.9,29.94,East,84,2.0,-999.0,86,0.00,,,0.01,Wunderground v.1.15,2013-02-14 09:39:00,
2013-02-14 04:44:00,64.1,59.8,29.94,East,80,2.0,-999.0,86,0.00,,,0.01,Wunderground v.1.15,2013-02-14 09:44:00,
2013-02-14 04:49:00,63.9,59.6,29.93,ENE,71,2.0,-999.0,86,0.00,,,0.01,Wunderground v.1.15,2013-02-14 09:49:00,
2013-02-14 04:54:00,63.8,59.2,29.93,ENE,69,2.0,-999.0,85,0.00,,,0.01,Wunderground v.1.15,2013-02-14 09:54:00,
2013-02-14 04:59:00,63.7,59.4,29.93,East,87,2.0,-999.0,86,0.00,,,0.01,Wunderground v.1.15,2013-02-14 09:59:00,
2013-02-14 05:09:00,63.5,59.2,29.93,ENE,73,2.0,-999.0,86,0.00,,,0.01,Wunderground v.1.15,2013-02-14 10:09:00,
2013-02-14 05:19:00,63.6,59.7,29.93,ENE,73,2.0,-999.0,87,0.00,,,0.01,Wunderground v.1.15,2013-02-14 10:19:00,
2013-02-14 05:24:00,63.7,59.8,29.94,ENE,74,2.0,-999.0,87,0.00,,,0.01,Wunderground v.1.15,2013-02-14 10:24:00,
2013-02-14 05:29:00,63.8,59.9,29.94,ENE,74,3.0,-999.0,87,0.00,,,0.01,Wunderground v.1.15,2013-02-14 10:29:00,
2013-02-14 05:34:00,63.5,59.6,29.95,ENE,74,3.0,-999.0,87,0.00,,,0.01,Wunderground v.1.15,2013-02-14 10:34:00,
2013-02-14 05:39:00,63.3,59.0,29.95,ENE,75,2.0,-999.0,86,0.00,,,0.01,Wunderground v.1.15,2013-02-14 10:39:00,
2013-02-14 05:49:00,63.1,59.5,29.95,ENE,72,2.0,-999.0,88,0.00,,,0.01,Wunderground v.1.15,2013-02-14 10:49:00,
2013-02-14 05:54:00,63.1,59.5,29.95,ENE,74,2.0,-999.0,88,0.00,,,0.01,Wunderground v.1.15,2013-02-14 10:54:00,
2013-02-14 05:59:00,63.1,59.8,29.95,ENE,77,3.0,-999.0,89,0.00,,,0.01,Wunderground v.1.15,2013-02-14 10:59:00,
2013-02-14 06:09:00,62.9,59.9,29.96,ENE,76,2.0,-999.0,90,0.00,,,0.01,Wunderground v.1.15,2013-02-14 11:09:00,
2013-02-14 06:14:00,62.7,60.0,29.96,ENE,73,2.0,-999.0,91,0.00,,,0.01,Wunderground v.1.15,2013-02-14 11:14:00,
2013-02-14 06:19:00,62.7,60.0,29.96,ENE,74,1.0,-999.0,91,0.00,,,0.01,Wunderground v.1.15,2013-02-14 11:19:00,
2013-02-14 06:24:00,62.5,59.8,29.96,ENE,76,0.0,-999.0,91,0.00,,,0.01,Wunderground v.1.15,2013-02-14 11:24:00,
2013-02-14 06:29:00,62.5,59.8,29.97,ENE,75,1.0,-999.0,91,0.00,,,0.01,Wunderground v.1.15,2013-02-14 11:29:00,
2013-02-14 06:39:00,62.5,60.1,29.97,ENE,68,1.0,-999.0,92,0.00,,,0.01,Wunderground v.1.15,2013-02-14 11:39:00,
2013-02-14 06:44:00,62.5,60.1,29.97,ENE,75,2.0,-999.0,92,0.00,,,0.01,Wunderground v.1.15,2013-02-14 11:44:00,
2013-02-14 06:49:00,62.5,60.1,29.97,ENE,72,2.0,-999.0,92,0.00,,,0.01,Wunderground v.1.15,2013-02-14 11:49:00,
2013-02-14 06:54:00,62.7,60.3,29.97,ENE,74,3.0,-999.0,92,0.00,,,0.01,Wunderground v.1.15,2013-02-14 11:54:00,
2013-02-14 06:59:00,62.7,60.0,29.97,ENE,74,1.0,-999.0,91,0.00,,,0.01,Wunderground v.1.15,2013-02-14 11:59:00,
2013-02-14 07:09:00,62.7,60.3,29.97,ENE,71,0.0,-999.0,92,0.00,,,0.01,Wunderground v.1.15,2013-02-14 12:09:00,
2013-02-14 07:14:00,62.8,60.4,29.97,ENE,74,0.0,-999.0,92,0.00,,,0.01,Wunderground v.1.15,2013-02-14 12:14:00,
2013-02-14 07:19:00,63.0,60.6,29.97,ENE,74,1.0,-999.0,92,0.00,,,0.01,Wunderground v.1.15,2013-02-14 12:19:00,
2013-02-14 07:24:00,63.2,60.8,29.98,ENE,74,3.0,-999.0,92,0.00,,,0.01,Wunderground v.1.15,2013-02-14 12:24:00,
2013-02-14 07:29:00,63.2,60.5,29.98,ENE,75,4.0,-999.0,91,0.00,,,0.01,Wunderground v.1.15,2013-02-14 12:29:00,
2013-02-14 07:39:00,63.2,60.8,29.98,ESE,106,4.0,-999.0,92,0.00,,,0.01,Wunderground v.1.15,2013-02-14 12:39:00,
2013-02-14 07:44:00,63.1,60.7,29.97,East,89,4.0,-999.0,92,0.00,,,0.01,Wunderground v.1.15,2013-02-14 12:44:00,
2013-02-14 07:49:00,63.1,61.0,29.97,ENE,78,4.0,-999.0,93,0.00,,,0.01,Wunderground v.1.15,2013-02-14 12:49:00,
2013-02-14 07:54:00,63.1,61.0,29.97,ENE,78,3.0,-999.0,93,0.00,,,0.01,Wunderground v.1.15,2013-02-14 12:54:00,
2013-02-14 07:59:00,63.1,60.7,29.97,ENE,74,3.0,-999.0,92,0.00,,,0.01,Wunderground v.1.15,2013-02-14 12:59:00,
2013-02-14 08:09:00,63.1,61.0,29.98,ENE,74,0.0,-999.0,93,0.00,,,0.01,Wunderground v.1.15,2013-02-14 13:09:00,
2013-02-14 08:14:00,63.3,61.2,29.98,ENE,77,2.0,-999.0,93,0.00,,,0.01,Wunderground v.1.15,2013-02-14 13:14:00,
2013-02-14 08:24:00,63.6,61.5,29.98,ENE,74,3.0,-999.0,93,0.00,,,0.01,Wunderground v.1.15,2013-02-14 13:24:00,
2013-02-14 08:29:00,63.6,61.5,29.98,ENE,76,2.0,-999.0,93,0.00,,,0.01,Wunderground v.1.15,2013-02-14 13:29:00,
2013-02-14 08:39:00,63.8,61.7,29.98,ENE,73,3.0,-999.0,93,0.00,,,0.01,Wunderground v.1.15,2013-02-14 13:39:00,
2013-02-14 08:44:00,64.0,62.2,29.98,East,79,4.0,-999.0,94,0.00,,,0.01,Wunderground v.1.15,2013-02-14 13:44:00,
2013-02-14 08:49:00,64.0,62.2,29.98,ENE,75,5.0,-999.0,94,0.00,,,0.01,Wunderground v.1.15,2013-02-14 13:49:00,
2013-02-14 08:54:00,64.1,62.3,29.98,ENE,71,5.0,-999.0,94,0.00,,,0.01,Wunderground v.1.15,2013-02-14 13:54:00,
2013-02-14 09:04:00,64.5,62.7,29.98,East,88,4.0,-999.0,94,0.00,,,0.01,Wunderground v.1.15,2013-02-14 14:04:00,
2013-02-14 09:09:00,64.7,62.9,29.98,ENE,71,3.0,-999.0,94,0.00,,,0.01,Wunderground v.1.15,2013-02-14 14:09:00,
2013-02-14 09:14:00,65.0,63.2,29.98,ENE,74,3.0,-999.0,94,0.00,,,0.01,Wunderground v.1.15,2013-02-14 14:14:00,
2013-02-14 09:19:00,65.2,62.8,29.99,ENE,74,0.0,-999.0,92,0.00,,,0.01,Wunderground v.1.15,2013-02-14 14:19:00,
2013-02-14 09:29:00,65.4,63.3,30.00,ENE,74,0.0,-999.0,93,0.00,,,0.01,Wunderground v.1.15,2013-02-14 14:29:00,
2013-02-14 09:34:00,65.4,63.3,29.99,ENE,74,0.0,-999.0,93,0.00,,,0.01,Wunderground v.1.15,2013-02-14 14:34:00,
2013-02-14 09:39:00,65.3,63.2,29.98,ENE,74,0.0,-999.0,93,0.24,,,0.03,Wunderground v.1.15,2013-02-14 14:39:00,
2013-02-14 09:44:00,65.2,63.4,29.98,ENE,74,0.0,-999.0,94,0.10,,,0.04,Wunderground v.1.15,2013-02-14 14:44:00,
2013-02-14 09:49:00,65.2,63.7,29.99,ENE,75,0.0,-999.0,95,0.09,,,0.04,Wunderground v.1.15,2013-02-14 14:49:00,
2013-02-14 09:59:00,65.5,64.0,30.00,ENE,75,1.0,-999.0,95,0.04,,,0.05,Wunderground v.1.15,2013-02-14 14:59:00,
2013-02-14 10:04:00,65.5,64.0,29.99,ENE,74,0.0,-999.0,95,0.39,,,0.10,Wunderground v.1.15,2013-02-14 15:04:00,
2013-02-14 10:14:00,65.6,64.4,29.99,ENE,78,4.0,-999.0,96,0.06,,,0.11,Wunderground v.1.15,2013-02-14 15:14:00,
2013-02-14 10:19:00,65.7,64.5,29.99,ENE,78,3.0,-999.0,96,0.04,,,0.11,Wunderground v.1.15,2013-02-14 15:19:00,
2013-02-14 10:29:00,65.8,64.6,30.00,ENE,78,1.0,-999.0,96,0.00,,,0.11,Wunderground v.1.15,2013-02-14 15:29:00,
2013-02-14 10:34:00,65.9,64.7,30.00,ENE,78,0.0,-999.0,96,0.00,,,0.11,Wunderground v.1.15,2013-02-14 15:34:00,
2013-02-14 10:39:00,66.0,64.8,30.00,ENE,78,0.0,-999.0,96,0.00,,,0.11,Wunderground v.1.15,2013-02-14 15:39:00,
2013-02-14 10:44:00,66.0,64.8,30.00,ENE,78,0.0,-999.0,96,0.00,,,0.11,Wunderground v.1.15,2013-02-14 15:44:00,
2013-02-14 10:54:00,66.2,65.0,29.98,ENE,78,0.0,-999.0,96,0.00,,,0.11,Wunderground v.1.15,2013-02-14 15:54:00,
2013-02-14 10:59:00,66.4,65.5,29.98,ENE,77,1.0,-999.0,97,0.00,,,0.11,Wunderground v.1.15,2013-02-14 15:59:00,
2013-02-14 11:09:00,66.6,65.4,29.99,ENE,76,1.0,-999.0,96,0.00,,,0.11,Wunderground v.1.15,2013-02-14 16:09:00,
2013-02-14 11:14:00,66.7,65.5,29.99,ENE,76,0.0,-999.0,96,0.00,,,0.11,Wunderground v.1.15,2013-02-14 16:14:00,
2013-02-14 11:19:00,66.7,65.5,29.98,ENE,76,0.0,-999.0,96,0.00,,,0.11,Wunderground v.1.15,2013-02-14 16:19:00,
2013-02-14 11:24:00,67.0,65.8,29.98,ENE,76,1.0,-999.0,96,0.00,,,0.11,Wunderground v.1.15,2013-02-14 16:24:00,
2013-02-14 11:29:00,67.0,65.8,29.98,ENE,76,1.0,-999.0,96,0.00,,,0.11,Wunderground v.1.15,2013-02-14 16:29:00,
2013-02-14 11:34:00,67.0,65.8,29.98,ENE,76,0.0,-999.0,96,0.40,,,0.13,Wunderground v.1.15,2013-02-14 16:34:00,
2013-02-14 11:44:00,67.1,65.9,29.98,ENE,76,0.0,-999.0,96,0.62,,,0.20,Wunderground v.1.15,2013-02-14 16:44:00,
2013-02-14 11:49:00,67.1,65.9,29.98,ENE,76,0.0,-999.0,96,0.81,,,0.30,Wunderground v.1.15,2013-02-14 16:49:00,
2013-02-14 11:54:00,67.2,66.0,29.97,ENE,76,0.0,-999.0,96,0.25,,,0.33,Wunderground v.1.15,2013-02-14 16:54:00,
2013-02-14 11:59:00,67.3,66.4,29.96,ENE,74,1.0,-999.0,97,0.10,,,0.33,Wunderground v.1.15,2013-02-14 16:59:00,
2013-02-14 12:09:00,68.2,67.3,29.96,ENE,70,3.0,-999.0,97,0.04,,,0.33,Wunderground v.1.15,2013-02-14 17:09:00,
2013-02-14 12:14:00,68.1,67.2,29.96,ENE,71,3.0,-999.0,97,0.00,,,0.33,Wunderground v.1.15,2013-02-14 17:14:00,
2013-02-14 12:19:00,68.3,67.1,29.95,ENE,71,3.0,-999.0,96,0.00,,,0.33,Wunderground v.1.15,2013-02-14 17:19:00,
2013-02-14 12:24:00,68.3,67.1,29.95,ENE,72,2.0,-999.0,96,0.00,,,0.33,Wunderground v.1.15,2013-02-14 17:24:00,
2013-02-14 12:29:00,68.4,67.2,29.95,ENE,75,3.0,-999.0,96,0.00,,,0.33,Wunderground v.1.15,2013-02-14 17:29:00,
2013-02-14 12:34:00,69.1,67.9,29.94,ENE,75,3.0,-999.0,96,0.00,,,0.33,Wunderground v.1.15,2013-02-14 17:34:00,
2013-02-14 12:39:00,69.8,68.6,29.94,ENE,76,2.0,-999.0,96,0.00,,,0.33,Wunderground v.1.15,2013-02-14 17:39:00,
2013-02-14 12:49:00,70.7,68.6,29.93,East,86,2.0,-999.0,93,0.00,,,0.33,Wunderground v.1.15,2013-02-14 17:49:00,
2013-02-14 12:59:00,71.0,68.6,29.93,ENE,67,2.0,-999.0,92,0.00,,,0.33,Wunderground v.1.15,2013-02-14 17:59:00,
2013-02-14 13:04:00,70.9,68.5,29.93,ENE,69,2.0,-999.0,92,0.00,,,0.33,Wunderground v.1.15,2013-02-14 18:04:00,
2013-02-14 13:09:00,70.9,68.5,29.92,ENE,70,1.0,-999.0,92,0.00,,,0.33,Wunderground v.1.15,2013-02-14 18:09:00,
2013-02-14 13:19:00,71.1,69.0,29.92,ENE,70,0.0,-999.0,93,0.00,,,0.33,Wunderground v.1.15,2013-02-14 18:19:00,
2013-02-14 13:24:00,71.1,69.0,29.92,ENE,69,0.0,-999.0,93,0.00,,,0.33,Wunderground v.1.15,2013-02-14 18:24:00,
2013-02-14 13:29:00,71.1,68.7,29.92,ENE,70,0.0,-999.0,92,0.00,,,0.33,Wunderground v.1.15,2013-02-14 18:29:00,
2013-02-14 13:34:00,70.2,66.1,29.91,North,355,1.0,-999.0,87,0.00,,,0.33,Wunderground v.1.15,2013-02-14 18:34:00,
2013-02-14 13:44:00,68.0,65.3,29.91,North,5,1.0,-999.0,91,0.00,,,0.34,Wunderground v.1.15,2013-02-14 18:44:00,
2013-02-14 13:49:00,67.2,64.8,29.91,NW,325,1.0,-999.0,92,0.25,,,0.36,Wunderground v.1.15,2013-02-14 18:49:00,
2013-02-14 13:54:00,66.3,64.2,29.93,WNW,298,5.0,-999.0,93,0.13,,,0.37,Wunderground v.1.15,2013-02-14 18:54:00,
2013-02-14 13:59:00,65.7,63.9,29.92,NW,322,7.0,-999.0,94,1.59,,,0.44,Wunderground v.1.15,2013-02-14 18:59:00,
2013-02-14 14:04:00,65.3,63.5,29.92,NW,325,5.0,-999.0,94,0.62,,,0.56,Wunderground v.1.15,2013-02-14 19:04:00,
2013-02-14 14:14:00,65.0,63.8,29.90,NW,322,3.0,-999.0,96,0.10,,,0.58,Wunderground v.1.15,2013-02-14 19:14:00,
2013-02-14 14:19:00,65.0,63.8,29.90,NW,315,2.0,-999.0,96,0.14,,,0.59,Wunderground v.1.15,2013-02-14 19:19:00,
2013-02-14 14:24:00,64.8,63.3,29.91,NW,313,4.0,-999.0,95,1.08,,,0.63,Wunderground v.1.15,2013-02-14 19:24:00,
2013-02-14 14:29:00,64.1,62.3,29.92,NNW,327,7.0,-999.0,94,1.59,,,0.79,Wunderground v.1.15,2013-02-14 19:29:00,
2013-02-14 14:34:00,63.6,62.1,29.92,WNW,302,8.0,-999.0,95,2.85,,,1.01,Wunderground v.1.15,2013-02-14 19:34:00,
2013-02-14 14:44:00,62.8,61.3,29.93,NNW,334,5.0,-999.0,95,2.09,,,1.25,Wunderground v.1.15,2013-02-14 19:44:00,
2013-02-14 14:49:00,62.5,61.3,29.94,NW,306,5.0,-999.0,96,1.20,,,1.33,Wunderground v.1.15,2013-02-14 19:49:00,
2013-02-14 14:54:00,62.5,61.3,29.93,NW,308,4.0,-999.0,96,0.51,,,1.39,Wunderground v.1.15,2013-02-14 19:54:00,
2013-02-14 14:59:00,62.4,61.2,29.94,NW,311,3.0,-999.0,96,0.25,,,1.41,Wunderground v.1.15,2013-02-14 19:59:00,
2013-02-14 15:09:00,62.3,61.1,29.94,NW,306,2.0,-999.0,96,0.32,,,1.45,Wunderground v.1.15,2013-02-14 20:09:00,
2013-02-14 15:14:00,62.2,61.0,29.94,NW,304,2.0,-999.0,96,0.64,,,1.49,Wunderground v.1.15,2013-02-14 20:14:00,
2013-02-14 15:19:00,62.2,61.0,29.94,NNW,329,4.0,-999.0,96,0.51,,,1.52,Wunderground v.1.15,2013-02-14 20:19:00,
2013-02-14 15:24:00,62.2,61.0,29.94,NW,321,4.0,-999.0,96,0.45,,,1.56,Wunderground v.1.15,2013-02-14 20:24:00,
2013-02-14 15:29:00,62.1,60.9,29.94,NW,311,4.0,-999.0,96,0.70,,,1.65,Wunderground v.1.15,2013-02-14 20:29:00,
2013-02-14 15:34:00,62.0,60.8,29.94,WNW,296,3.0,-999.0,96,0.50,,,1.70,Wunderground v.1.15,2013-02-14 20:34:00,
2013-02-14 15:39:00,61.9,60.7,29.95,NNW,339,5.0,-999.0,96,1.00,,,1.76,Wunderground v.1.15,2013-02-14 20:39:00,
2013-02-14 15:44:00,61.9,60.7,29.95,NW,320,7.0,-999.0,96,0.64,,,1.86,Wunderground v.1.15,2013-02-14 20:44:00,
2013-02-14 15:54:00,61.9,61.0,29.95,NNW,347,3.0,-999.0,97,0.43,,,1.95,Wunderground v.1.15,2013-02-14 20:54:00,
2013-02-14 15:59:00,61.8,60.6,29.95,NW,313,3.0,-999.0,96,0.41,,,2.00,Wunderground v.1.15,2013-02-14 20:59:00,
2013-02-14 16:04:00,61.7,60.5,29.95,NW,323,3.0,-999.0,96,0.30,,,2.03,Wunderground v.1.15,2013-02-14 21:04:00,
2013-02-14 16:14:00,61.7,60.5,29.97,NNW,330,2.0,-999.0,96,0.48,,,2.10,Wunderground v.1.15,2013-02-14 21:14:00,
2013-02-14 16:19:00,61.7,60.5,29.97,NW,321,1.0,-999.0,96,0.24,,,2.13,Wunderground v.1.15,2013-02-14 21:19:00,
2013-02-14 16:24:00,61.6,60.4,29.97,NW,325,1.0,-999.0,96,0.25,,,2.15,Wunderground v.1.15,2013-02-14 21:24:00,
2013-02-14 16:29:00,61.5,60.3,29.96,NW,325,3.0,-999.0,96,0.24,,,2.17,Wunderground v.1.15,2013-02-14 21:29:00,
2013-02-14 16:34:00,61.5,60.3,29.95,NNW,331,4.0,-999.0,96,0.15,,,2.18,Wunderground v.1.15,2013-02-14 21:34:00,
2013-02-14 16:39:00,61.2,59.8,29.95,NNW,337,4.0,-999.0,95,0.10,,,2.19,Wunderground v.1.15,2013-02-14 21:39:00,
2013-02-14 16:44:00,61.0,59.6,29.98,NW,317,4.0,-999.0,95,0.07,,,2.19,Wunderground v.1.15,2013-02-14 21:44:00,
2013-02-14 16:49:00,61.1,59.7,29.99,NW,323,4.0,-999.0,95,0.17,,,2.20,Wunderground v.1.15,2013-02-14 21:49:00,
2013-02-14 16:54:00,60.9,59.5,29.98,NW,317,4.0,-999.0,95,0.42,,,2.24,Wunderground v.1.15,2013-02-14 21:54:00,
2013-02-14 17:04:00,60.8,59.4,30.00,NW,313,2.0,-999.0,95,0.64,,,2.29,Wunderground v.1.15,2013-02-14 22:04:00,
2013-02-14 17:09:00,60.7,59.3,29.99,NW,320,3.0,-999.0,95,0.24,,,2.32,Wunderground v.1.15,2013-02-14 22:09:00,
2013-02-14 17:14:00,60.7,59.3,29.98,NW,314,2.0,-999.0,95,0.18,,,2.33,Wunderground v.1.15,2013-02-14 22:14:00,
2013-02-14 17:24:00,60.6,59.2,29.99,North,355,1.0,-999.0,95,0.05,,,2.33,Wunderground v.1.15,2013-02-14 22:24:00,
2013-02-14 17:29:00,60.6,59.2,29.99,NW,322,1.0,-999.0,95,0.04,,,2.34,Wunderground v.1.15,2013-02-14 22:29:00,
2013-02-14 17:34:00,60.6,59.5,29.99,North,360,0.0,-999.0,96,0.21,,,2.36,Wunderground v.1.15,2013-02-14 22:34:00,
2013-02-14 17:39:00,60.6,59.5,29.99,NNW,327,0.0,-999.0,96,0.17,,,2.37,Wunderground v.1.15,2013-02-14 22:39:00,
2013-02-14 17:44:00,60.5,59.4,29.99,NW,315,0.0,-999.0,96,0.11,,,2.38,Wunderground v.1.15,2013-02-14 22:44:00,
2013-02-14 17:54:00,60.5,59.4,30.01,NW,306,1.0,-999.0,96,0.10,,,2.39,Wunderground v.1.15,2013-02-14 22:54:00,
2013-02-14 17:59:00,60.5,59.4,30.00,NW,306,1.0,-999.0,96,0.05,,,2.39,Wunderground v.1.15,2013-02-14 22:59:00,
2013-02-14 18:04:00,60.5,59.4,30.00,NW,306,1.0,-999.0,96,0.14,,,2.41,Wunderground v.1.15,2013-02-14 23:04:00,
2013-02-14 18:14:00,60.7,59.8,30.02,NW,306,1.0,-999.0,97,0.11,,,2.42,Wunderground v.1.15,2013-02-14 23:14:00,
2013-02-14 18:19:00,60.8,59.9,30.01,NW,306,1.0,-999.0,97,0.07,,,2.43,Wunderground v.1.15,2013-02-14 23:19:00,
2013-02-14 18:24:00,60.9,60.0,30.01,NW,306,0.0,-999.0,97,0.07,,,2.43,Wunderground v.1.15,2013-02-14 23:24:00,
2013-02-14 18:29:00,60.9,60.0,30.01,NW,306,1.0,-999.0,97,0.05,,,2.43,Wunderground v.1.15,2013-02-14 23:29:00,
2013-02-14 18:34:00,60.9,60.0,30.01,NW,325,1.0,-999.0,97,0.00,,,2.43,Wunderground v.1.15,2013-02-14 23:34:00,
2013-02-14 18:44:00,61.1,60.2,30.02,NW,320,1.0,-999.0,97,0.00,,,2.43,Wunderground v.1.15,2013-02-14 23:44:00,
2013-02-14 18:49:00,61.1,60.0,30.02,NW,323,2.0,-999.0,96,0.00,,,2.43,Wunderground v.1.15,2013-02-14 23:49:00,
2013-02-14 18:54:00,61.0,59.9,30.02,NW,322,2.0,-999.0,96,0.00,,,2.43,Wunderground v.1.15,2013-02-14 23:54:00,
2013-02-14 18:59:00,61.1,60.0,30.01,NW,322,2.0,-999.0,96,0.00,,,2.43,Wunderground v.1.15,2013-02-14 23:59:00,
2013-02-14 19:09:00,61.1,60.0,30.01,NW,323,0.0,-999.0,96,0.00,,,2.43,Wunderground v.1.15,2013-02-15 00:09:00,
2013-02-14 19:14:00,61.2,60.1,30.01,NNW,337,0.0,-999.0,96,0.00,,,2.43,Wunderground v.1.15,2013-02-15 00:14:00,
2013-02-14 19:19:00,61.2,60.1,30.01,NNW,337,0.0,-999.0,96,0.00,,,2.43,Wunderground v.1.15,2013-02-15 00:19:00,
2013-02-14 19:29:00,61.2,60.3,30.01,NNW,337,0.0,-999.0,97,0.00,,,2.43,Wunderground v.1.15,2013-02-15 00:29:00,
2013-02-14 19:34:00,61.3,60.4,30.01,NNW,338,0.0,-999.0,97,0.00,,,2.43,Wunderground v.1.15,2013-02-15 00:34:00,
2013-02-14 19:39:00,61.3,60.4,30.02,NNW,343,0.0,-999.0,97,0.00,,,2.43,Wunderground v.1.15,2013-02-15 00:39:00,
2013-02-14 19:44:00,61.3,60.2,30.02,NNW,342,0.0,-999.0,96,0.00,,,2.43,Wunderground v.1.15,2013-02-15 00:44:00,
2013-02-14 19:49:00,61.3,60.2,30.03,NNW,343,0.0,-999.0,96,0.00,,,2.44,Wunderground v.1.15,2013-02-15 00:49:00,
2013-02-14 19:54:00,61.1,60.0,30.02,NNW,340,0.0,-999.0,96,0.00,,,2.44,Wunderground v.1.15,2013-02-15 00:54:00,
2013-02-14 20:04:00,60.9,59.5,30.03,NNW,340,0.0,-999.0,95,0.00,,,2.44,Wunderground v.1.15,2013-02-15 01:04:00,
2013-02-14 20:09:00,60.9,59.8,30.03,NNE,29,0.0,-999.0,96,0.00,,,2.44,Wunderground v.1.15,2013-02-15 01:09:00,
2013-02-14 20:19:00,60.8,59.7,30.03,NNE,29,0.0,-999.0,96,0.00,,,2.44,Wunderground v.1.15,2013-02-15 01:19:00,
2013-02-14 20:24:00,60.8,59.7,30.02,NE,40,0.0,-999.0,96,0.00,,,2.44,Wunderground v.1.15,2013-02-15 01:24:00,
2013-02-14 20:29:00,60.7,59.3,30.01,NE,45,1.0,-999.0,95,0.00,,,2.44,Wunderground v.1.15,2013-02-15 01:29:00,
2013-02-14 20:34:00,60.6,59.5,30.01,ENE,63,1.0,-999.0,96,0.00,,,2.44,Wunderground v.1.15,2013-02-15 01:34:00,
2013-02-14 20:39:00,60.6,59.5,30.01,ENE,63,1.0,-999.0,96,0.00,,,2.44,Wunderground v.1.15,2013-02-15 01:39:00,
2013-02-14 20:49:00,60.7,59.3,30.00,ENE,74,1.0,-999.0,95,0.00,,,2.44,Wunderground v.1.15,2013-02-15 01:49:00,
2013-02-14 20:54:00,60.7,59.3,30.01,ENE,63,1.0,-999.0,95,0.00,,,2.44,Wunderground v.1.15,2013-02-15 01:54:00,
2013-02-14 20:59:00,60.7,59.0,30.02,NE,52,1.0,-999.0,94,0.00,,,2.44,Wunderground v.1.15,2013-02-15 01:59:00,
2013-02-14 21:04:00,60.7,59.0,30.02,NE,52,0.0,-999.0,94,0.00,,,2.44,Wunderground v.1.15,2013-02-15 02:04:00,
2013-02-14 21:09:00,60.7,59.0,30.02,NE,53,0.0,-999.0,94,0.00,,,2.44,Wunderground v.1.15,2013-02-15 02:09:00,
2013-02-14 21:14:00,60.6,58.6,30.02,ENE,76,0.0,-999.0,93,0.00,,,2.44,Wunderground v.1.15,2013-02-15 02:14:00,
2013-02-14 21:19:00,60.4,58.4,30.02,ENE,77,0.0,-999.0,93,0.00,,,2.44,Wunderground v.1.15,2013-02-15 02:19:00,
2013-02-14 21:29:00,60.3,58.3,30.03,ENE,69,0.0,-999.0,93,0.00,,,2.44,Wunderground v.1.15,2013-02-15 02:29:00,
2013-02-14 21:34:00,60.2,58.2,30.03,ENE,69,0.0,-999.0,93,0.00,,,2.44,Wunderground v.1.15,2013-02-15 02:34:00,
2013-02-14 21:39:00,60.2,58.5,30.02,ENE,69,0.0,-999.0,94,0.00,,,2.44,Wunderground v.1.15,2013-02-15 02:39:00,
2013-02-14 21:44:00,60.1,58.4,30.03,ENE,69,0.0,-999.0,94,0.00,,,2.44,Wunderground v.1.15,2013-02-15 02:44:00,
2013-02-14 21:54:00,60.1,58.4,30.03,ENE,69,0.0,-999.0,94,0.00,,,2.44,Wunderground v.1.15,2013-02-15 02:54:00,
2013-02-14 21:59:00,60.0,58.3,30.03,ENE,70,0.0,-999.0,94,0.00,,,2.44,Wunderground v.1.15,2013-02-15 02:59:00,
2013-02-14 22:04:00,60.0,58.3,30.03,ENE,70,0.0,-999.0,94,0.00,,,2.44,Wunderground v.1.15,2013-02-15 03:04:00,
2013-02-14 22:14:00,59.9,58.2,30.03,ENE,70,0.0,-999.0,94,0.00,,,2.44,Wunderground v.1.15,2013-02-15 03:14:00,
2013-02-14 22:19:00,59.9,58.2,30.03,ENE,70,0.0,-999.0,94,0.00,,,2.44,Wunderground v.1.15,2013-02-15 03:19:00,
2013-02-14 22:24:00,59.9,58.2,30.03,ENE,69,0.0,-999.0,94,0.00,,,2.44,Wunderground v.1.15,2013-02-15 03:24:00,
2013-02-14 22:29:00,59.8,57.8,30.03,ENE,70,0.0,-999.0,93,0.00,,,2.44,Wunderground v.1.15,2013-02-15 03:29:00,
2013-02-14 22:34:00,60.1,58.7,30.02,ENE,66,1.0,-999.0,95,0.00,,,2.44,Wunderground v.1.15,2013-02-15 03:34:00,
2013-02-14 22:44:00,60.2,58.2,30.03,ENE,66,1.0,-999.0,93,0.00,,,2.44,Wunderground v.1.15,2013-02-15 03:44:00,
2013-02-14 22:49:00,60.4,58.4,30.03,ENE,67,0.0,-999.0,93,0.00,,,2.44,Wunderground v.1.15,2013-02-15 03:49:00,
2013-02-14 22:54:00,60.5,58.2,30.03,ENE,67,0.0,-999.0,92,0.00,,,2.44,Wunderground v.1.15,2013-02-15 03:54:00,
2013-02-14 22:59:00,60.7,58.4,30.03,ENE,68,0.0,-999.0,92,0.00,,,2.44,Wunderground v.1.15,2013-02-15 03:59:00,
2013-02-14 23:04:00,60.7,57.7,30.03,ENE,68,0.0,-999.0,90,0.00,,,2.44,Wunderground v.1.15,2013-02-15 04:04:00,
2013-02-14 23:14:00,60.8,57.8,30.03,ENE,67,1.0,-999.0,90,0.00,,,2.44,Wunderground v.1.15,2013-02-15 04:14:00,
2013-02-14 23:19:00,60.9,57.9,30.02,ENE,69,0.0,-999.0,90,0.00,,,2.44,Wunderground v.1.15,2013-02-15 04:19:00,
2013-02-14 23:24:00,61.1,58.1,30.02,ENE,65,1.0,-999.0,90,0.00,,,2.44,Wunderground v.1.15,2013-02-15 04:24:00,
2013-02-14 23:29:00,61.3,58.3,30.03,ENE,70,2.0,-999.0,90,0.00,,,2.44,Wunderground v.1.15,2013-02-15 04:29:00,
2013-02-14 23:34:00,61.4,58.4,30.02,ENE,77,2.0,-999.0,90,0.00,,,2.44,Wunderground v.1.15,2013-02-15 04:34:00,
2013-02-14 23:44:00,61.2,58.2,30.02,ENE,73,2.0,-999.0,90,0.00,,,2.44,Wunderground v.1.15,2013-02-15 04:44:00,
2013-02-14 23:49:00,61.1,57.8,30.01,ENE,72,0.0,-999.0,89,0.00,,,2.44,Wunderground v.1.15,2013-02-15 04:49:00,
2013-02-14 23:54:00,61.0,57.7,30.01,ENE,72,0.0,-999.0,89,0.00,,,2.44,Wunderground v.1.15,2013-02-15 04:54:00,